This is the latest recevied weather packets stored in our database for station/object F4NFR-13. If no packets are shown the sender has not sent any weather packets the latest 10 day(s).
| Time | Temp. | Humidity | Pressure | Rain* | Wind** | Luminosity | Snow |
|---|---|---|---|---|---|---|---|
| 1777888592 | 13.89° C | 84% | 1016.1 hPa | 0 mm | - | 238 W/m² | - |
| 1777888290 | 13.89° C | 84% | 1016.1 hPa | 0 mm | - | 0 W/m² | - |
| 1777887988 | 13.89° C | 84% | 1016.1 hPa | 0 mm | - | 305 W/m² | - |
| 1777887987 | 13.89° C | 84% | 1016.1 hPa | 0 mm | - | 305 W/m² | - |
| 1777887382 | 15° C | 80% | 1016.1 hPa | 0 mm | - | 127 W/m² | - |
| 1777887080 | 13.89° C | 82% | 1016.1 hPa | 0 mm | - | 0 W/m² | - |
| 1777886779 | 13.89° C | 83% | 1016.1 hPa | 0 mm | - | 0 W/m² | - |
| 1777886778 | 13.89° C | 83% | 1016.1 hPa | 0 mm | - | 0 W/m² | - |
| 1777886476 | 13.89° C | 84% | 1016.1 hPa | 0 mm | - | 0 W/m² | - |
| 1777886475 | 13.89° C | 84% | 1016.1 hPa | 0 mm | - | 0 W/m² | - |
| 1777886173 | 13.89° C | 86% | 1016.1 hPa | 0 mm | - | 265 W/m² | - |
| 1777885870 | 12.78° C | 87% | 1016.1 hPa | 0 mm | - | 226 W/m² | - |
| 1777885568 | 12.78° C | 88% | 1016.1 hPa | 0 mm | - | 200 W/m² | - |
| 1777884661 | 12.78° C | 87% | 1016.1 hPa | 0 mm | - | 217 W/m² | - |
| 1777884358 | 12.78° C | 87% | 1016.1 hPa | 0 mm | - | 175 W/m² | - |
| 1777884056 | 12.78° C | 86% | 1016.1 hPa | 0 mm | - | 149 W/m² | - |
| 1777883753 | 12.78° C | 85% | 1015.7 hPa | 0 mm | - | 184 W/m² | - |
| 1777883451 | 13.89° C | 86% | 1015.7 hPa | 0 mm | - | 193 W/m² | - |
| 1777883149 | 13.89° C | 87% | 1015.7 hPa | 0 mm | - | 192 W/m² | - |
| 1777882846 | 12.78° C | 88% | 1015.7 hPa | 0 mm | - | 0 W/m² | - |
| 1777882241 | 12.78° C | 89% | 1015.4 hPa | 0 mm | - | 181 W/m² | - |
| 1777881939 | 12.78° C | 91% | 1015.4 hPa | 0 mm | - | 192 W/m² | - |
| 1777881637 | 12.78° C | 94% | 1015.4 hPa | 0 mm | - | 210 W/m² | - |
| 1777881334 | 12.78° C | 96% | 1015.4 hPa | 0 mm | - | 194 W/m² | - |
| 1777881032 | 12.78° C | 97% | 1015.4 hPa | 0 mm | - | 196 W/m² | - |
* Rain latest hour (hover to see other rain measurements)
** Current wind speed in m/s (hover to see current wind gust speed)